Regional Weather Roundup
Issued by NWS Albany, NY

Current Version | Previous Version | Text Only | Print | Product List | Glossary On
Versions: 1 2 3 4 5 6 7 8 9 10 11 12 13 14 15 16 17 18 19 20 21 22 23 24 25 26 27
000 ASUS41 KALY 192110 RWRALY NEW YORK STATE HOURLY WEATHER ROUNDUP NATIONAL WEATHER SERVICE ALBANY NY 400 PM EST MON FEB 19 2018 NOTE: "FAIR" INDICATES FEW OR NO CLOUDS BELOW 12,000 FEET WITH NO SIGNIFICANT WEATHER AND/OR NO OBSTRUCTIONS TO VISIBILITY. NYZ032-033-038>043-046>054-057>066-NYZ062>081-082-084-192200- EAST CITY SKY/WX TMP DP RH WIND PRES REMARKS ALBANY LGT RAIN 41 33 73 S16G26 30.28F GLENS FALLS CLOUDY 41 31 67 S22G30 30.26F POUGHKEEPSIE LGT RAIN 43 35 73 S5 30.35F NEWBURGH LGT RAIN 43 37 81 VRB6 30.36F MONTGOMERY LGT RAIN 39 36 89 S3 30.33F FOG WHITE PLAINS DRIZZLE 45 40 82 S7 30.36F ISLIP CLOUDY 47 43 86 S9G17 30.39F NEW YORK CITY CLOUDY 49 41 74 S7 30.39S CENTRAL PARK CLOUDY 49 40 71 S3 30.40S $$ NYZ005>009-017-018-044>046-055-056-192200- CENTRAL CITY SKY/WX TMP DP RH WIND PRES REMARKS FULTON CLOUDY 41 37 86 VRB7 30.13F SYRACUSE LGT RAIN 40 40 100 SE5 30.15F ROME LGT RAIN 37 36 96 E8 30.22F FOG WCI 31 ELMIRA LGT RAIN 42 40 92 S6 30.16F BINGHAMTON LGT RAIN 36 34 92 S12 30.18F FOG WCI 28 MONTICELLO MIX PCPN 34 33 96 S8 30.30F FOG WCI 27 $$ NYZ026>034-041>043-087-192200- NORTH CITY SKY/WX TMP DP RH WIND PRES REMARKS WATERTOWN CLOUDY 41 38 89 S8 30.11S FOG FORT DRUM NOT AVBL OGDENSBURG CLOUDY 42 34 74 S5 30.11S MASSENA LGT RAIN 41 36 82 CALM 30.12F SARANAC LAKE MIX PCPN 37 35 92 SW7 30.11F WCI 32 PLATTSBURGH CLOUDY 42 29 59 S15 30.18R $$ NYZ001>004-010>016-019>021-085-192200- WEST CITY SKY/WX TMP DP RH WIND PRES REMARKS NIAGARA FALLS LGT RAIN 48 44 86 SW7 30.03R FOG BUFFALO RAIN 49 47 93 SW14 30.04S FOG DUNKIRK LGT RAIN 50 47 89 S17G25 30.04S JAMESTOWN N/A N/A N/A N/A MISG N/A HAZE WELLSVILLE CLOUDY 44 43 96 S8 30.12S ROCHESTER LGT RAIN 49 44 83 SW13G21 30.06F PENN YAN LGT RAIN 42 36 79 S12G22 30.11F $$ KEY WCI = WIND CHILL INDEX VSB = VISIBILITY HX = HEAT INDEX $$

USA.gov is the U.S. government's official web portal to all federal, state and local government web resources and services.